DateTimeUTC,F1_A11,F1_S11,BsB_S11,BsG_S11,BsR_S11,BbsB_S11,BbsG_S11,BbsR_S11,BaB_A11,BaG_A11,BaR_A11,Tu_S11,T_S11,Uu_S11,U_S11,P_S11,T1_A11
2021-03-22T14:00:00Z,00000200,21000000,,,,,,,-000.18,-000.09,-000.02,16.4,24.0,,00.0,0626.1,30.9
2021-03-22T14:01:00Z,00000200,21000000,,,,,,,0000.04,0000.16,-000.11,16.4,24.0,,00.0,0626.1,30.9
2021-03-22T14:02:00Z,00000200,21000000,,,,,,,0000.39,0000.33,0000.33,16.4,24.0,,00.0,0626.1,30.9
2021-03-22T14:03:00Z,00000200,61000000,,,,,,,0000.89,0000.79,0000.38,16.4,24.0,,00.0,0626.1,30.9
2021-03-22T14:04:00Z,00000200,41000000,0001.83,0000.89,0000.71,0000.51,0000.19,-000.07,0000.81,0000.46,0000.71,16.5,23.8,,00.0,0627.0,30.9
2021-03-22T14:05:00Z,00000200,01000000,0001.45,0001.43,0000.54,0000.71,0000.54,0000.03,0000.22,0000.24,0000.25,16.6,23.7,,00.0,0627.0,30.9
2021-03-22T14:06:00Z,00000200,01000000,0001.36,0001.04,0000.42,0000.76,0000.24,-000.01,0000.26,0000.47,0000.14,16.6,23.7,,00.0,0627.0,30.9
2021-03-22T14:07:00Z,00000200,01000000,0001.38,0000.91,0000.48,0000.45,0000.14,0000.02,0000.41,0000.20,0000.18,16.6,23.7,,00.0,0627.0,30.9
2021-03-22T14:08:00Z,00000200,01000000,0001.07,0001.30,0000.87,0000.30,-000.11,0000.08,0000.19,0000.29,0000.56,16.6,23.7,,00.0,0627.0,30.9
2021-03-22T14:09:00Z,00000200,01000000,0001.04,0000.98,0000.47,0000.58,0000.16,-000.12,0000.53,0000.62,0000.15,16.7,23.7,,00.0,0627.0,30.9
2021-03-22T14:10:00Z,00000200,01000000,0001.23,0001.00,0000.53,0000.77,0000.37,0000.02,0000.56,0000.25,0000.19,16.7,23.7,,00.0,0627.0,30.9
2021-03-22T14:11:00Z,00000200,01000000,0001.81,0001.08,0000.83,0000.76,0000.45,-000.03,0000.35,0000.43,0000.23,16.7,23.7,,00.0,0627.0,30.9
2021-03-22T14:12:00Z,00000200,01000000,0001.27,0000.96,0000.86,0000.62,0000.28,-000.06,0000.56,0000.41,0000.28,16.7,23.7,,00.0,0627.0,30.9
2021-03-22T14:13:00Z,00000200,01000000,0001.85,0001.64,0001.40,0000.83,0000.51,0000.13,0011.35,0010.31,0007.66,16.7,23.7,,00.0,0627.1,30.9
2021-03-22T14:14:00Z,00000200,01000000,0001.82,0001.19,0000.44,0000.55,0000.01,-000.06,-008.04,-007.20,-005.08,16.6,23.7,,00.0,0627.1,30.9
2021-03-22T14:15:00Z,00000200,01000000,0001.21,0001.24,0000.88,0000.31,0000.18,0000.01,-000.97,-000.61,-000.37,16.7,23.7,,00.0,0627.1,30.9
2021-03-22T14:16:00Z,00000200,01000000,0001.29,0001.06,0000.63,0000.60,0000.33,0000.12,0000.40,-000.03,0000.01,16.7,23.7,,00.0,0627.1,30.9
2021-03-22T14:17:00Z,00000200,01000000,0006.63,0007.04,0006.52,0001.55,0001.23,0001.05,0030.17,0026.37,0018.51,16.6,23.7,04.2,02.7,0627.2,30.9
2021-03-22T14:18:00Z,00000200,00000000,0001.96,0001.33,0001.20,0000.64,0000.04,0000.34,-003.71,-003.24,-000.96,16.6,23.7,06.5,04.2,0627.2,30.9
2021-03-22T14:19:00Z,00000200,01000000,0001.86,0001.09,0000.62,0000.31,0000.33,-000.14,-003.74,-002.75,-001.97,16.6,23.7,02.2,01.4,0627.1,30.9
2021-03-22T14:20:00Z,00000200,01000000,0001.77,0001.03,0000.37,-000.08,0000.06,-000.28,-003.00,-002.32,-001.55,16.5,23.6,00.1,00.1,0627.1,30.9
2021-03-22T14:21:00Z,00000200,01000000,0001.05,0001.04,0000.65,0000.43,0000.15,0000.17,-001.57,-001.95,-000.81,16.5,23.6,,00.0,0627.1,30.9
2021-03-22T14:22:00Z,00000200,01000000,0001.10,0001.08,0000.78,-000.19,0000.10,-000.05,-002.01,-001.35,-001.10,16.5,23.6,,00.0,0627.1,30.9
2021-03-22T14:23:00Z,00000200,01000000,0001.94,0001.05,0000.79,0000.13,0000.03,-000.17,-000.81,-000.52,0000.01,16.5,23.6,,00.0,0627.1,30.9
2021-03-22T14:24:00Z,00000200,01000000,0001.31,0000.92,0000.62,0000.34,0000.39,0000.13,0000.16,0000.22,0000.13,16.6,23.6,,00.0,0627.1,30.9
2021-03-22T14:25:00Z,00000200,01000000,0001.88,0001.42,0000.81,0000.72,0000.23,-000.01,-000.41,0000.18,0000.36,16.7,23.7,,00.0,0627.0,30.9
2021-03-22T14:26:00Z,00000200,01000000,0001.77,0001.04,0000.85,0000.61,0000.26,-000.05,0000.52,0000.23,0000.20,16.7,23.7,,00.0,0627.0,31.0
2021-03-22T14:27:00Z,00000200,01000000,0001.40,0001.65,0000.55,-000.05,0000.27,-000.02,0000.56,0000.65,0000.41,16.8,23.8,,00.0,0627.0,31.0
2021-03-22T14:28:00Z,00000200,01000000,0001.78,0001.13,0000.88,0000.77,0000.16,0000.01,0000.33,0000.31,0000.11,16.8,23.8,,00.0,0627.0,31.0
2021-03-22T14:29:00Z,00000200,01000000,0001.82,0001.09,0000.71,0000.22,0000.17,0000.01,0000.74,0000.60,0000.29,16.9,23.8,,00.0,0627.0,31.0
2021-03-22T14:30:00Z,00000200,01000000,0001.92,0001.17,0000.67,0000.19,0000.38,0000.08,0000.54,0000.30,0000.43,16.9,23.8,,00.0,0627.0,31.0
2021-03-22T14:31:00Z,00000200,01000000,0001.93,0001.29,0000.95,0000.34,0000.26,-000.00,0000.24,0000.52,0000.28,16.9,23.8,,00.0,0627.0,31.0
2021-03-22T14:32:00Z,00000200,01000000,0001.23,0001.20,0000.56,-000.06,0000.14,-000.01,0000.61,0000.47,0000.74,16.9,23.8,,00.0,0627.0,31.0
2021-03-22T14:33:00Z,00000200,01000000,0001.85,0000.96,0000.89,0000.55,0000.27,-000.11,0000.38,0000.57,0000.22,16.9,23.8,,00.0,0627.0,31.0
2021-03-22T14:34:00Z,00000200,01000000,0001.37,0001.01,0000.43,0000.36,0000.00,0000.00,0000.51,0000.03,-000.00,16.9,23.9,,00.0,0627.0,31.0
2021-03-22T14:35:00Z,00000200,01000000,0001.38,0000.95,0000.63,0000.27,-000.12,-000.42,0000.19,0000.47,0000.24,17.0,23.9,,00.0,0626.9,31.0
2021-03-22T14:36:00Z,00000200,01000000,0001.04,0001.13,0000.87,0000.51,0000.23,-000.03,0000.63,0000.25,0000.26,17.0,23.9,,00.0,0626.9,31.0
2021-03-22T14:37:00Z,00000200,01000000,0001.53,0001.18,0000.77,0000.57,0000.19,0000.07,0000.65,0000.93,0000.80,17.0,23.9,,00.0,0626.9,30.9
2021-03-22T14:38:00Z,00000200,01000000,0001.94,0001.01,0000.70,0000.39,0000.37,0000.03,0000.23,0000.49,0000.20,17.0,23.9,,00.0,0626.9,31.0
2021-03-22T14:39:00Z,00000200,01000000,0001.45,0001.19,0000.95,0000.37,0000.09,-000.01,0000.67,0000.19,0000.50,17.1,23.9,,00.0,0626.9,31.0
2021-03-22T14:40:00Z,00000200,01000000,0001.92,0001.19,0000.57,0000.23,0000.22,-000.07,0000.41,0000.43,0000.58,17.1,23.9,,00.0,0626.9,31.0
2021-03-22T14:41:00Z,00000200,01000000,0001.71,0001.21,0000.67,0000.52,0000.23,0000.14,0000.68,0000.62,0000.07,17.2,24.0,,00.0,0626.9,31.0
2021-03-22T14:42:00Z,00000200,01000000,0001.06,0001.22,0000.48,0000.53,0000.50,-000.08,0000.34,0000.46,0000.20,17.3,24.1,,00.0,0626.9,31.1
2021-03-22T14:43:00Z,00000200,01000000,0001.14,0001.07,0000.75,0000.40,0000.43,0000.02,0000.55,0000.50,0000.66,17.4,24.1,,00.0,0626.9,31.1
2021-03-22T14:44:00Z,00000200,01000000,0001.50,0001.27,0000.87,0000.77,0000.15,0000.13,0001.00,0001.02,0000.72,17.4,24.2,,00.0,0626.9,31.1
2021-03-22T14:45:00Z,00000200,01000000,0001.47,0001.55,0000.71,0000.40,0000.40,-000.17,0000.84,0000.67,0000.25,17.5,24.2,,00.0,0626.9,31.1
2021-03-22T14:46:00Z,00000200,01000000,0002.23,0001.63,0000.86,0000.43,0000.32,-000.42,0000.25,0000.13,0000.42,17.6,24.3,,00.0,0626.9,31.1
2021-03-22T14:47:00Z,00000200,01000000,0001.65,0001.22,0000.77,0000.72,0000.36,0000.01,0000.66,0000.27,0000.40,17.7,24.3,,00.0,0626.9,31.1
2021-03-22T14:48:00Z,00000200,01000000,0001.73,0001.28,0001.06,0000.36,0000.13,0000.36,0000.34,0000.87,0000.31,17.8,24.4,,00.0,0626.9,31.1
2021-03-22T14:49:00Z,00000200,01000000,0002.24,0001.50,0000.99,0000.41,0000.24,0000.02,0000.12,-000.03,0000.14,17.9,24.5,,00.0,0626.9,31.1
2021-03-22T14:50:00Z,00000200,01000000,0001.79,0001.66,0000.73,0000.70,0000.14,0000.13,0000.63,0000.57,0000.50,17.9,24.5,,00.0,0626.9,31.1
2021-03-22T14:51:00Z,00000200,01000000,0001.31,0001.32,0000.71,0000.17,0000.36,-000.31,0000.27,0000.53,0000.15,18.0,24.5,,00.0,0626.9,31.1
2021-03-22T14:52:00Z,00000200,01000000,0001.99,0001.30,0000.71,-000.11,0000.27,0000.20,0000.55,0000.12,0000.40,18.0,24.5,,00.0,0626.9,31.0
2021-03-22T14:53:00Z,00000200,01000000,0002.24,0001.22,0000.68,0000.57,0000.12,0000.17,0000.04,0000.15,-000.02,18.0,24.5,,00.0,0626.9,31.0
2021-03-22T14:54:00Z,00000200,01000000,0001.24,0001.36,0000.82,0000.78,0000.04,-000.05,0000.93,0000.42,0000.50,18.0,24.5,,00.0,0626.9,31.1
2021-03-22T14:55:00Z,00000200,01000000,0001.76,0001.38,0000.76,0000.58,0000.01,-000.18,0000.28,0000.58,0000.45,18.0,24.5,,00.0,0626.9,31.0
2021-03-22T14:56:00Z,00000200,01000000,0001.55,0001.39,0000.72,0000.66,0000.22,-000.16,0000.34,0000.58,0000.07,18.0,24.6,,00.0,0626.9,31.0
2021-03-22T14:57:00Z,00000200,41000000,,,,,,,0001.62,0000.98,0001.18,18.0,24.6,,00.0,0626.9,31.0
2021-03-22T14:58:00Z,00000200,61000000,,,,,,,-001.03,-000.77,-000.74,17.7,24.7,,00.0,0625.9,31.0
2021-03-22T14:59:00Z,00000200,21000000,,,,,,,-000.10,0000.14,-000.31,17.6,24.8,,00.0,0625.9,31.0
